DAL2485 KMSP-CYYC

Flight info

Callsign DAL2485
Flight time 2h 35m
Altitude 36000
Route KBREW2 FAR DCT MOT DCT BEVEL DCT MOBEK EBGAL7
Aircraft A320/M-SDE3FGHIRWY/LB1

Departure

Time 2026-05-08 00:33
Airport Minneapolis–Saint Paul International Airport / Wold–Chamberlain Field (KMSP)

Arrival

Time 2026-05-08 03:08
Airport Calgary International Airport (CYYC)
Time Latitude Longitude Altitude Speed Heading
2026-05-08 00:07 44.88474 -93.20911 824 ft 0 kts 210°
2026-05-08 00:20 44.88483 -93.20904 824 ft 2 kts 209°
2026-05-08 00:21 44.88496 -93.20894 824 ft 2 kts 210°
2026-05-08 00:21 44.88509 -93.20883 824 ft 2 kts 209°
2026-05-08 00:21 44.88522 -93.20873 824 ft 2 kts 210°
2026-05-08 00:21 44.88535 -93.20863 824 ft 2 kts 209°
2026-05-08 00:22 44.88549 -93.20853 824 ft 2 kts 185°
2026-05-08 00:22 44.88564 -93.20856 824 ft 2 kts 160°
2026-05-08 00:22 44.88577 -93.20866 824 ft 2 kts 134°
2026-05-08 00:22 44.88585 -93.20880 824 ft 0 kts 115°
2026-05-08 00:23 44.88585 -93.20881 824 ft 0 kts 115°
2026-05-08 00:25 44.88583 -93.20877 824 ft 1 kts 115°
2026-05-08 00:25 44.88577 -93.20844 824 ft 5 kts 99°
2026-05-08 00:25 44.88571 -93.20775 823 ft 8 kts 98°
2026-05-08 00:25 44.88550 -93.20676 822 ft 11 kts 114°
2026-05-08 00:26 44.88507 -93.20572 821 ft 13 kts 122°
2026-05-08 00:26 44.88457 -93.20457 820 ft 14 kts 121°
2026-05-08 00:26 44.88402 -93.20328 818 ft 15 kts 122°
2026-05-08 00:26 44.88343 -93.20193 817 ft 16 kts 121°
2026-05-08 00:27 44.88279 -93.20047 816 ft 17 kts 122°
2026-05-08 00:27 44.88213 -93.19896 815 ft 18 kts 121°
2026-05-08 00:27 44.88147 -93.19741 814 ft 18 kts 121°
2026-05-08 00:27 44.88069 -93.19631 813 ft 14 kts 157°
2026-05-08 00:28 44.88017 -93.19582 813 ft 7 kts 116°
2026-05-08 00:28 44.88012 -93.19548 813 ft 0 kts 85°
2026-05-08 00:31 44.88012 -93.19547 813 ft 0 kts 85°
2026-05-08 00:31 44.88016 -93.19531 813 ft 3 kts 65°
2026-05-08 00:32 44.88045 -93.19492 812 ft 8 kts 34°
2026-05-08 00:32 44.88103 -93.19443 812 ft 10 kts 16°
2026-05-08 00:32 44.88171 -93.19501 813 ft 21 kts 303°
2026-05-08 00:32 44.88376 -93.19974 816 ft 89 kts 302°
2026-05-08 00:33 44.88804 -93.20961 827 ft 144 kts 301°
2026-05-08 00:33 44.89389 -93.22329 1019 ft 174 kts 301°
2026-05-08 00:33 44.90117 -93.23674 1694 ft 172 kts 313°
2026-05-08 00:33 44.90926 -93.24833 2485 ft 165 kts 314°
2026-05-08 00:34 44.91784 -93.25967 2968 ft 177 kts 316°
2026-05-08 00:34 44.92744 -93.27177 3364 ft 194 kts 319°
2026-05-08 00:34 44.93988 -93.28130 3665 ft 220 kts 338°
2026-05-08 00:34 44.95526 -93.28777 4122 ft 238 kts 342°
2026-05-08 00:35 44.97166 -93.29427 4620 ft 254 kts 341°
2026-05-08 00:35 44.98875 -93.30141 5359 ft 259 kts 340°
2026-05-08 00:35 45.00600 -93.30894 6187 ft 261 kts 339°
2026-05-08 00:35 45.02329 -93.31673 6987 ft 263 kts 339°
2026-05-08 00:36 45.04051 -93.32464 7794 ft 264 kts 339°
2026-05-08 00:36 45.05785 -93.33269 8604 ft 264 kts 339°
2026-05-08 00:36 45.07531 -93.34082 9409 ft 265 kts 338°
2026-05-08 00:36 45.09277 -93.34898 10191 ft 266 kts 338°
2026-05-08 00:37 45.11042 -93.35725 10744 ft 275 kts 338°
2026-05-08 00:37 45.12909 -93.36659 11117 ft 289 kts 332°
2026-05-08 00:37 45.14575 -93.38272 11747 ft 291 kts 315°
2026-05-08 00:38 45.16773 -93.43010 13299 ft 291 kts 301°
2026-05-08 00:38 45.17754 -93.45497 13979 ft 292 kts 301°
2026-05-08 00:38 45.18753 -93.48042 14626 ft 295 kts 301°
2026-05-08 00:38 45.19741 -93.50569 15203 ft 298 kts 301°
2026-05-08 00:39 45.20758 -93.53169 15823 ft 300 kts 301°
2026-05-08 00:39 45.21771 -93.55764 16432 ft 302 kts 301°
2026-05-08 00:39 45.22785 -93.58364 17019 ft 304 kts 301°
2026-05-08 00:39 45.23804 -93.60983 17605 ft 305 kts 302°
2026-05-08 00:40 45.24826 -93.63611 18153 ft 307 kts 302°
2026-05-08 00:40 45.25856 -93.66264 18719 ft 308 kts 301°
2026-05-08 00:40 45.26892 -93.68934 19257 ft 310 kts 301°
2026-05-08 00:40 45.27931 -93.71609 19779 ft 312 kts 301°
2026-05-08 00:41 45.28990 -93.74345 20303 ft 314 kts 301°
2026-05-08 00:41 45.30038 -93.77055 20802 ft 316 kts 301°
2026-05-08 00:41 45.31095 -93.79785 21321 ft 317 kts 301°
2026-05-08 00:41 45.32156 -93.82536 21807 ft 318 kts 301°
2026-05-08 00:42 45.33223 -93.85300 22304 ft 320 kts 301°
2026-05-08 00:42 45.34294 -93.88077 22746 ft 322 kts 301°
2026-05-08 00:42 45.35375 -93.90884 23067 ft 328 kts 301°
2026-05-08 00:42 45.36472 -93.93739 23450 ft 331 kts 301°
2026-05-08 00:43 45.37573 -93.96607 23896 ft 332 kts 301°
2026-05-08 00:43 45.38675 -93.99477 24313 ft 334 kts 301°
2026-05-08 00:43 45.39791 -94.02389 24722 ft 335 kts 301°
2026-05-08 00:43 45.40905 -94.05302 25096 ft 338 kts 301°
2026-05-08 00:44 45.42033 -94.08252 25461 ft 340 kts 301°
2026-05-08 00:44 45.43177 -94.11244 25800 ft 342 kts 301°
2026-05-08 00:44 45.44320 -94.14230 26123 ft 345 kts 301°
2026-05-08 00:44 45.45467 -94.17239 26439 ft 347 kts 301°
2026-05-08 00:45 45.46620 -94.20270 26750 ft 350 kts 301°
2026-05-08 00:45 45.47782 -94.23322 27069 ft 351 kts 301°
2026-05-08 00:45 45.48933 -94.26351 27381 ft 353 kts 301°
2026-05-08 00:45 45.50102 -94.29434 27681 ft 355 kts 301°
2026-05-08 00:46 45.51291 -94.32569 27974 ft 357 kts 301°
2026-05-08 00:46 45.52472 -94.35687 28240 ft 359 kts 301°
2026-05-08 00:46 45.53658 -94.38827 28518 ft 361 kts 301°
2026-05-08 00:46 45.54838 -94.41950 28764 ft 363 kts 300°
2026-05-08 00:47 45.56037 -94.45128 29018 ft 365 kts 301°
2026-05-08 00:47 45.57254 -94.48299 29278 ft 366 kts 302°
2026-05-08 00:47 45.58575 -94.51407 29508 ft 367 kts 304°
2026-05-08 00:47 45.60011 -94.54440 29746 ft 369 kts 307°
2026-05-08 00:48 45.61531 -94.57405 29976 ft 370 kts 307°
2026-05-08 00:48 45.63063 -94.60368 30197 ft 372 kts 307°
2026-05-08 00:48 45.64607 -94.63345 30400 ft 374 kts 308°
2026-05-08 00:48 45.66163 -94.66349 30602 ft 376 kts 307°
2026-05-08 00:49 45.67730 -94.69377 30843 ft 377 kts 307°
2026-05-08 00:49 45.69230 -94.72275 31058 ft 378 kts 307°
2026-05-08 00:49 45.70802 -94.75312 31282 ft 379 kts 307°
2026-05-08 00:49 45.72373 -94.78354 31523 ft 380 kts 307°
2026-05-08 00:50 45.73945 -94.81401 31794 ft 379 kts 307°
2026-05-08 00:50 45.75503 -94.84422 32069 ft 378 kts 307°
2026-05-08 00:50 45.77057 -94.87442 32334 ft 378 kts 307°
2026-05-08 00:50 45.78616 -94.90470 32591 ft 377 kts 307°
2026-05-08 00:51 45.80173 -94.93500 32842 ft 377 kts 307°
2026-05-08 00:51 45.81716 -94.96505 33087 ft 376 kts 307°
2026-05-08 00:51 45.83263 -94.99524 33322 ft 376 kts 307°
2026-05-08 00:51 45.84816 -95.02554 33546 ft 376 kts 307°
2026-05-08 00:52 45.86366 -95.05581 33754 ft 376 kts 307°
2026-05-08 00:52 45.87907 -95.08594 33975 ft 375 kts 307°
2026-05-08 00:52 45.89455 -95.11626 34176 ft 375 kts 306°
2026-05-08 00:52 45.90996 -95.14645 34326 ft 376 kts 306°
2026-05-08 00:53 45.92544 -95.17687 34457 ft 377 kts 306°
2026-05-08 00:53 45.94086 -95.20713 34606 ft 378 kts 306°
2026-05-08 00:53 45.95631 -95.23755 34725 ft 378 kts 307°
2026-05-08 00:54 45.98744 -95.29889 34892 ft 380 kts 307°
2026-05-08 00:54 46.01860 -95.36039 35060 ft 382 kts 306°
2026-05-08 00:55 46.04992 -95.42238 35201 ft 383 kts 306°
2026-05-08 00:55 46.08126 -95.48451 35311 ft 384 kts 307°
2026-05-08 00:56 46.11266 -95.54688 35441 ft 386 kts 306°
2026-05-08 00:56 46.14432 -95.60995 35560 ft 388 kts 306°
2026-05-08 00:57 46.17599 -95.67319 35665 ft 389 kts 306°
2026-05-08 00:57 46.20771 -95.73664 35807 ft 391 kts 306°
2026-05-08 00:58 46.23946 -95.80032 35834 ft 393 kts 306°
2026-05-08 00:58 46.27134 -95.86440 35830 ft 393 kts 306°
2026-05-08 00:59 46.30323 -95.92862 35826 ft 394 kts 306°
2026-05-08 00:59 46.33509 -95.99295 35836 ft 394 kts 306°
2026-05-08 01:00 46.36698 -96.05750 35834 ft 394 kts 306°
2026-05-08 01:00 46.39868 -96.12177 35838 ft 394 kts 306°
2026-05-08 01:01 46.43068 -96.18684 35849 ft 394 kts 306°
2026-05-08 01:01 46.46240 -96.25150 35841 ft 394 kts 306°
2026-05-08 01:02 46.49398 -96.31600 35833 ft 394 kts 306°
2026-05-08 01:02 46.52564 -96.38079 35839 ft 395 kts 306°
2026-05-08 01:03 46.55745 -96.44605 35832 ft 395 kts 306°
2026-05-08 01:03 46.58913 -96.51124 35837 ft 395 kts 306°
2026-05-08 01:04 46.62067 -96.57628 35832 ft 395 kts 306°
2026-05-08 01:04 46.65242 -96.64187 35825 ft 396 kts 306°
2026-05-08 01:05 46.68401 -96.70731 35831 ft 395 kts 305°
2026-05-08 01:05 46.71566 -96.77305 35834 ft 396 kts 305°
2026-05-08 01:06 46.74683 -96.83913 35829 ft 396 kts 303°
2026-05-08 01:06 46.77432 -96.90868 35829 ft 397 kts 299°
2026-05-08 01:07 46.80037 -96.97929 35832 ft 397 kts 299°
2026-05-08 01:07 46.82647 -97.05032 35830 ft 397 kts 299°
2026-05-08 01:08 46.85262 -97.12177 35827 ft 397 kts 299°
2026-05-08 01:08 46.87859 -97.19292 35825 ft 397 kts 299°
2026-05-08 01:09 46.90453 -97.26416 35826 ft 398 kts 299°
2026-05-08 01:09 46.93049 -97.33566 35828 ft 399 kts 299°
2026-05-08 01:10 46.95639 -97.40717 35823 ft 398 kts 299°
2026-05-08 01:10 46.98224 -97.47875 35821 ft 398 kts 299°
2026-05-08 01:11 47.00805 -97.55035 35828 ft 399 kts 299°
2026-05-08 01:11 47.03390 -97.62232 35825 ft 399 kts 299°
2026-05-08 01:12 47.05969 -97.69427 35820 ft 399 kts 298°
2026-05-08 01:12 47.08557 -97.76677 35813 ft 400 kts 298°
2026-05-08 01:13 47.11139 -97.83923 35818 ft 401 kts 298°
2026-05-08 01:13 47.13707 -97.91149 35823 ft 401 kts 298°
2026-05-08 01:14 47.16287 -97.98428 35820 ft 401 kts 298°
2026-05-08 01:14 47.18870 -98.05737 35820 ft 401 kts 298°
2026-05-08 01:15 47.21432 -98.13007 35825 ft 402 kts 298°
2026-05-08 01:15 47.23991 -98.20287 35825 ft 402 kts 298°
2026-05-08 01:16 47.26550 -98.27589 35821 ft 402 kts 298°
2026-05-08 01:16 47.29107 -98.34907 35818 ft 402 kts 298°
2026-05-08 01:17 47.31662 -98.42236 35816 ft 402 kts 298°
2026-05-08 01:17 47.34196 -98.49532 35814 ft 402 kts 298°
2026-05-08 01:18 47.36753 -98.56911 35812 ft 402 kts 298°
2026-05-08 01:18 47.39291 -98.64255 35813 ft 402 kts 298°
2026-05-08 01:19 47.41822 -98.71602 35814 ft 403 kts 297°
2026-05-08 01:19 47.44367 -98.79004 35812 ft 403 kts 297°
2026-05-08 01:20 47.46893 -98.86378 35813 ft 403 kts 297°
2026-05-08 01:20 47.49413 -98.93749 35813 ft 404 kts 297°
2026-05-08 01:21 47.51942 -99.01174 35813 ft 404 kts 297°
2026-05-08 01:21 47.54455 -99.08573 35807 ft 404 kts 297°
2026-05-08 01:22 47.56965 -99.15977 35810 ft 404 kts 297°
2026-05-08 01:22 47.59482 -99.23428 35806 ft 404 kts 297°
2026-05-08 01:23 47.61995 -99.30888 35807 ft 404 kts 297°
2026-05-08 01:23 47.64490 -99.38317 35806 ft 404 kts 297°
2026-05-08 01:23 47.65738 -99.42041 36033 ft 404 kts 297°
2026-05-08 01:24 47.66980 -99.45753 35921 ft 402 kts 297°
2026-05-08 01:24 47.69452 -99.53157 35835 ft 402 kts 297°
2026-05-08 01:25 47.71939 -99.60619 35805 ft 402 kts 297°
2026-05-08 01:25 47.74414 -99.68075 35800 ft 403 kts 296°
2026-05-08 01:26 47.76896 -99.75575 35794 ft 403 kts 296°
2026-05-08 01:26 47.79363 -99.83051 35797 ft 403 kts 297°
2026-05-08 01:27 47.81831 -99.90546 35800 ft 403 kts 297°
2026-05-08 01:27 47.84283 -99.98016 35805 ft 403 kts 297°
2026-05-08 01:28 47.86736 -100.05511 35811 ft 403 kts 296°
2026-05-08 01:28 47.89183 -100.13011 35814 ft 404 kts 296°
2026-05-08 01:29 47.91636 -100.20554 35814 ft 404 kts 296°
2026-05-08 01:29 47.94074 -100.28075 35816 ft 404 kts 297°
2026-05-08 01:30 47.96518 -100.35628 35816 ft 404 kts 297°
2026-05-08 01:30 47.98949 -100.43166 35816 ft 404 kts 297°
2026-05-08 01:31 48.01367 -100.50690 35816 ft 405 kts 297°
2026-05-08 01:31 48.03806 -100.58300 35816 ft 405 kts 297°
2026-05-08 01:32 48.06216 -100.65842 35818 ft 404 kts 296°
2026-05-08 01:32 48.08569 -100.73230 35817 ft 404 kts 296°
2026-05-08 01:33 48.10991 -100.80853 35816 ft 404 kts 296°
2026-05-08 01:33 48.13393 -100.88439 35817 ft 405 kts 296°
2026-05-08 01:34 48.15804 -100.96073 35818 ft 405 kts 296°
2026-05-08 01:34 48.18191 -101.03657 35819 ft 405 kts 296°
2026-05-08 01:35 48.20596 -101.11318 35823 ft 405 kts 296°
2026-05-08 01:35 48.22989 -101.18973 35827 ft 405 kts 296°
2026-05-08 01:36 48.25277 -101.26630 35824 ft 406 kts 293°
2026-05-08 01:36 48.27095 -101.34656 35824 ft 407 kts 288°
2026-05-08 01:37 48.28611 -101.42854 35821 ft 406 kts 288°
2026-05-08 01:37 48.30101 -101.51010 35818 ft 406 kts 287°
2026-05-08 01:38 48.31581 -101.59164 35814 ft 406 kts 288°
2026-05-08 01:38 48.33065 -101.67378 35814 ft 406 kts 287°
2026-05-08 01:39 48.34515 -101.75427 35809 ft 406 kts 287°
2026-05-08 01:39 48.35976 -101.83575 35803 ft 406 kts 287°
2026-05-08 01:40 48.37441 -101.91791 35801 ft 406 kts 287°
2026-05-08 01:40 48.38891 -101.99958 35804 ft 406 kts 287°
2026-05-08 01:41 48.40335 -102.08131 35798 ft 406 kts 287°
2026-05-08 01:41 48.41786 -102.16377 35798 ft 406 kts 287°
2026-05-08 01:42 48.43221 -102.24563 35801 ft 406 kts 287°
2026-05-08 01:42 48.44649 -102.32760 35799 ft 406 kts 287°
2026-05-08 01:43 48.46070 -102.40947 35802 ft 405 kts 287°
2026-05-08 01:43 48.47492 -102.49184 35803 ft 405 kts 287°
2026-05-08 01:44 48.48894 -102.57343 35806 ft 405 kts 287°
2026-05-08 01:44 48.50300 -102.65556 35806 ft 405 kts 287°
2026-05-08 01:45 48.51704 -102.73802 35808 ft 405 kts 287°
2026-05-08 01:45 48.53101 -102.82043 35809 ft 405 kts 287°
2026-05-08 01:46 48.54486 -102.90248 35812 ft 405 kts 287°
2026-05-08 01:46 48.55862 -102.98444 35810 ft 405 kts 287°
2026-05-08 01:47 48.57241 -103.06702 35813 ft 405 kts 287°
2026-05-08 01:47 48.58605 -103.14902 35812 ft 404 kts 287°
2026-05-08 01:48 48.60642 -103.27233 35815 ft 404 kts 287°
2026-05-08 01:48 48.61992 -103.35448 35814 ft 404 kts 287°
2026-05-08 01:49 48.63343 -103.43707 35814 ft 404 kts 287°
2026-05-08 01:49 48.64680 -103.51926 35812 ft 403 kts 287°
2026-05-08 01:50 48.66018 -103.60182 35812 ft 404 kts 287°
2026-05-08 01:50 48.67340 -103.68390 35800 ft 404 kts 287°
2026-05-08 01:51 48.68670 -103.76693 35805 ft 404 kts 287°
2026-05-08 01:51 48.69981 -103.84913 35797 ft 404 kts 287°
2026-05-08 01:52 48.71292 -103.93179 35798 ft 404 kts 287°
2026-05-08 01:52 48.72600 -104.01455 35789 ft 404 kts 287°
2026-05-08 01:53 48.73895 -104.09695 35794 ft 404 kts 287°
2026-05-08 01:53 48.75185 -104.17947 35806 ft 404 kts 287°
2026-05-08 01:54 48.76471 -104.26228 35814 ft 404 kts 287°
2026-05-08 01:54 48.77756 -104.34533 35812 ft 404 kts 287°
2026-05-08 01:55 48.79028 -104.42793 35821 ft 404 kts 287°
2026-05-08 01:55 48.80293 -104.51051 35827 ft 404 kts 287°
2026-05-08 01:56 48.81560 -104.59380 35826 ft 403 kts 287°
2026-05-08 01:56 48.82813 -104.67648 35823 ft 403 kts 286°
2026-05-08 01:57 48.84063 -104.75933 35821 ft 404 kts 286°
2026-05-08 01:57 48.85306 -104.84227 35810 ft 404 kts 286°
2026-05-08 01:58 48.86550 -104.92556 35827 ft 404 kts 286°
2026-05-08 01:58 48.87782 -105.00871 35827 ft 404 kts 286°
2026-05-08 01:59 48.89002 -105.09145 35821 ft 403 kts 287°
2026-05-08 01:59 48.90225 -105.17477 35821 ft 403 kts 287°
2026-05-08 02:00 48.91437 -105.25763 35828 ft 404 kts 287°
2026-05-08 02:00 48.92647 -105.34100 35823 ft 404 kts 286°
2026-05-08 02:01 48.93852 -105.42445 35822 ft 403 kts 286°
2026-05-08 02:01 48.95042 -105.50738 35815 ft 403 kts 287°
2026-05-08 02:02 48.96233 -105.59068 35816 ft 402 kts 287°
2026-05-08 02:02 48.97406 -105.67329 35809 ft 402 kts 286°
2026-05-08 02:03 48.98588 -105.75701 35808 ft 403 kts 286°
2026-05-08 02:03 48.99753 -105.83991 35810 ft 403 kts 286°
2026-05-08 02:04 49.00920 -105.92349 35824 ft 402 kts 286°
2026-05-08 02:04 49.02072 -106.00644 35829 ft 402 kts 286°
2026-05-08 02:05 49.03225 -106.08980 35831 ft 402 kts 286°
2026-05-08 02:05 49.04371 -106.17326 35832 ft 403 kts 286°
2026-05-08 02:06 49.05503 -106.25622 35832 ft 402 kts 286°
2026-05-08 02:06 49.06634 -106.33955 35846 ft 401 kts 286°
2026-05-08 02:07 49.07762 -106.42306 35825 ft 402 kts 286°
2026-05-08 02:07 49.08879 -106.50624 35849 ft 402 kts 286°
2026-05-08 02:08 49.09987 -106.58929 35839 ft 402 kts 286°
2026-05-08 02:08 49.11102 -106.67327 35836 ft 403 kts 285°
2026-05-08 02:09 49.12206 -106.75713 35617 ft 402 kts 286°
2026-05-08 02:09 49.13311 -106.84137 35993 ft 405 kts 285°
2026-05-08 02:10 49.13858 -106.88330 35715 ft 404 kts 286°
2026-05-08 02:10 49.14404 -106.92521 35763 ft 405 kts 285°
2026-05-08 02:10 49.15493 -107.00932 35807 ft 405 kts 286°
2026-05-08 02:11 49.16582 -107.09390 35835 ft 405 kts 286°
2026-05-08 02:11 49.17656 -107.17782 35831 ft 405 kts 285°
2026-05-08 02:12 49.18727 -107.26203 35838 ft 405 kts 286°
2026-05-08 02:12 49.19799 -107.34683 35840 ft 407 kts 285°
2026-05-08 02:13 49.20861 -107.43134 35853 ft 407 kts 285°
2026-05-08 02:13 49.21924 -107.51659 35852 ft 407 kts 285°
2026-05-08 02:14 49.22974 -107.60122 35843 ft 407 kts 286°
2026-05-08 02:14 49.24020 -107.68607 35861 ft 407 kts 285°
2026-05-08 02:15 49.25062 -107.77115 35868 ft 407 kts 285°
2026-05-08 02:15 49.26098 -107.85627 35868 ft 407 kts 285°
2026-05-08 02:16 49.27125 -107.94134 35873 ft 408 kts 285°
2026-05-08 02:16 49.28155 -108.02703 35872 ft 408 kts 285°
2026-05-08 02:17 49.29171 -108.11216 35874 ft 408 kts 285°
2026-05-08 02:17 49.30185 -108.19775 35866 ft 409 kts 285°
2026-05-08 02:18 49.31190 -108.28307 35864 ft 408 kts 285°
2026-05-08 02:18 49.32187 -108.36839 35867 ft 408 kts 285°
2026-05-08 02:19 49.33185 -108.45419 35869 ft 408 kts 285°
2026-05-08 02:19 49.34170 -108.53964 35868 ft 409 kts 285°
2026-05-08 02:20 49.35155 -108.62547 35869 ft 409 kts 285°
2026-05-08 02:20 49.36129 -108.71120 35872 ft 409 kts 284°
2026-05-08 02:21 49.37096 -108.79675 35874 ft 409 kts 284°
2026-05-08 02:21 49.38066 -108.88307 35876 ft 410 kts 284°
2026-05-08 02:22 49.39021 -108.96867 35882 ft 410 kts 284°
2026-05-08 02:22 49.39979 -109.05527 35889 ft 410 kts 284°
2026-05-08 02:23 49.40921 -109.14110 35891 ft 409 kts 285°
2026-05-08 02:23 49.41859 -109.22697 35894 ft 408 kts 285°
2026-05-08 02:24 49.42786 -109.31259 35893 ft 408 kts 285°
2026-05-08 02:24 49.43711 -109.39857 35897 ft 407 kts 285°
2026-05-08 02:25 49.44623 -109.48394 35898 ft 407 kts 285°
2026-05-08 02:25 49.45536 -109.57010 35901 ft 407 kts 285°
2026-05-08 02:26 49.46434 -109.65546 35903 ft 406 kts 284°
2026-05-08 02:26 49.47331 -109.74129 35906 ft 407 kts 284°
2026-05-08 02:27 49.48220 -109.82713 35908 ft 406 kts 284°
2026-05-08 02:27 49.49161 -109.91284 35908 ft 404 kts 287°
2026-05-08 02:28 49.50536 -109.99552 35917 ft 400 kts 292°
2026-05-08 02:28 49.52440 -110.07580 35925 ft 396 kts 297°
2026-05-08 02:29 49.54734 -110.15209 35922 ft 394 kts 300°
2026-05-08 02:29 49.57082 -110.22769 35916 ft 393 kts 300°
2026-05-08 02:30 49.59446 -110.30379 35914 ft 392 kts 300°
2026-05-08 02:30 49.61778 -110.37921 35925 ft 390 kts 300°
2026-05-08 02:31 49.64104 -110.45459 35923 ft 390 kts 301°
2026-05-08 02:31 49.66421 -110.52983 35938 ft 388 kts 301°
2026-05-08 02:32 49.68733 -110.60518 35936 ft 387 kts 301°
2026-05-08 02:32 49.71013 -110.67976 35926 ft 386 kts 300°
2026-05-08 02:33 49.73311 -110.75500 35919 ft 386 kts 300°
2026-05-08 02:33 49.75587 -110.82990 35919 ft 386 kts 300°
2026-05-08 02:34 49.77864 -110.90507 35928 ft 385 kts 301°
2026-05-08 02:34 49.80130 -110.98006 35910 ft 384 kts 301°
2026-05-08 02:35 49.82370 -111.05438 35903 ft 382 kts 301°
2026-05-08 02:35 49.84603 -111.12871 35902 ft 381 kts 301°
2026-05-08 02:36 49.86838 -111.20338 35902 ft 380 kts 301°
2026-05-08 02:36 49.89051 -111.27753 35906 ft 380 kts 301°
2026-05-08 02:37 49.91259 -111.35181 35907 ft 381 kts 301°
2026-05-08 02:37 49.93460 -111.42593 35907 ft 378 kts 301°
2026-05-08 02:38 49.95659 -111.50030 35909 ft 378 kts 301°
2026-05-08 02:38 49.97841 -111.57421 35903 ft 378 kts 301°
2026-05-08 02:39 50.00024 -111.64842 35892 ft 377 kts 301°
2026-05-08 02:39 50.02203 -111.72291 35892 ft 376 kts 301°
2026-05-08 02:40 50.04357 -111.79650 35596 ft 375 kts 301°
2026-05-08 02:40 50.05422 -111.83310 35366 ft 370 kts 301°
2026-05-08 02:40 50.06471 -111.86920 35134 ft 366 kts 301°
2026-05-08 02:41 50.07518 -111.90530 34906 ft 362 kts 301°
2026-05-08 02:41 50.08537 -111.94052 34682 ft 359 kts 302°
2026-05-08 02:41 50.09574 -111.97626 34424 ft 358 kts 302°
2026-05-08 02:41 50.10588 -112.01134 34043 ft 358 kts 302°
2026-05-08 02:42 50.11592 -112.04604 33489 ft 359 kts 302°
2026-05-08 02:42 50.12619 -112.08145 32825 ft 360 kts 302°
2026-05-08 02:42 50.13640 -112.11678 32118 ft 361 kts 301°
2026-05-08 02:42 50.14669 -112.15253 31405 ft 362 kts 302°
2026-05-08 02:43 50.15693 -112.18804 30677 ft 363 kts 301°
2026-05-08 02:43 50.16708 -112.22357 30197 ft 359 kts 301°
2026-05-08 02:43 50.17722 -112.25904 29748 ft 354 kts 301°
2026-05-08 02:43 50.18710 -112.29356 29299 ft 350 kts 301°
2026-05-08 02:44 50.19702 -112.32824 28843 ft 346 kts 300°
2026-05-08 02:44 50.20670 -112.36210 28415 ft 343 kts 300°
2026-05-08 02:44 50.21625 -112.39567 27982 ft 339 kts 300°
2026-05-08 02:44 50.22580 -112.42931 27555 ft 336 kts 299°
2026-05-08 02:45 50.23517 -112.46228 27138 ft 333 kts 299°
2026-05-08 02:45 50.24443 -112.49506 26734 ft 332 kts 298°
2026-05-08 02:45 50.25378 -112.52803 26321 ft 330 kts 298°
2026-05-08 02:45 50.26301 -112.56061 25913 ft 330 kts 298°
2026-05-08 02:46 50.27235 -112.59366 25477 ft 331 kts 297°
2026-05-08 02:46 50.28155 -112.62631 25027 ft 331 kts 297°
2026-05-08 02:46 50.29076 -112.65912 24564 ft 331 kts 296°
2026-05-08 02:46 50.29955 -112.69036 24119 ft 331 kts 295°
2026-05-08 02:47 50.30886 -112.72353 23651 ft 331 kts 295°
2026-05-08 02:47 50.31919 -112.75555 23173 ft 330 kts 301°
2026-05-08 02:47 50.33178 -112.78531 22708 ft 329 kts 307°
2026-05-08 02:47 50.34640 -112.81243 22269 ft 328 kts 313°
2026-05-08 02:48 50.36235 -112.83810 21819 ft 327 kts 314°
2026-05-08 02:48 50.37824 -112.86311 21372 ft 326 kts 315°
2026-05-08 02:48 50.39422 -112.88816 20936 ft 325 kts 314°
2026-05-08 02:48 50.41028 -112.91335 20499 ft 324 kts 315°
2026-05-08 02:49 50.42604 -112.93820 20061 ft 323 kts 314°
2026-05-08 02:49 50.44169 -112.96324 19623 ft 323 kts 314°
2026-05-08 02:49 50.45752 -112.98863 19178 ft 322 kts 314°
2026-05-08 02:49 50.47308 -113.01360 18748 ft 322 kts 314°
2026-05-08 02:50 50.48865 -113.03859 18307 ft 322 kts 315°
2026-05-08 02:50 50.50435 -113.06379 17872 ft 321 kts 314°
2026-05-08 02:50 50.51991 -113.08863 17464 ft 319 kts 315°
2026-05-08 02:50 50.53553 -113.11330 17110 ft 314 kts 315°
2026-05-08 02:51 50.55076 -113.13736 16777 ft 310 kts 315°
2026-05-08 02:51 50.56571 -113.16100 16448 ft 305 kts 315°
2026-05-08 02:51 50.58061 -113.18458 16119 ft 300 kts 315°
2026-05-08 02:51 50.59510 -113.20757 15814 ft 296 kts 315°
2026-05-08 02:52 50.60959 -113.23062 15501 ft 291 kts 315°
2026-05-08 02:52 50.62355 -113.25311 15222 ft 286 kts 314°
2026-05-08 02:52 50.63723 -113.27522 14975 ft 280 kts 314°
2026-05-08 02:52 50.65076 -113.29716 14736 ft 275 kts 314°
2026-05-08 02:53 50.66384 -113.31835 14502 ft 269 kts 315°
2026-05-08 02:53 50.67681 -113.33939 14263 ft 263 kts 314°
2026-05-08 02:53 50.68951 -113.35996 14102 ft 261 kts 315°
2026-05-08 02:53 50.70262 -113.37962 13991 ft 261 kts 318°
2026-05-08 02:54 50.71646 -113.39853 13961 ft 262 kts 319°
2026-05-08 02:54 50.73011 -113.41708 13716 ft 261 kts 319°
2026-05-08 02:54 50.74377 -113.43562 13456 ft 260 kts 319°
2026-05-08 02:54 50.75749 -113.45425 13202 ft 257 kts 319°
2026-05-08 02:55 50.77092 -113.47254 12865 ft 257 kts 319°
2026-05-08 02:55 50.79771 -113.50905 12293 ft 250 kts 319°
2026-05-08 02:55 50.81072 -113.52679 12025 ft 246 kts 319°
2026-05-08 02:56 50.82350 -113.54427 11742 ft 242 kts 319°
2026-05-08 02:56 50.83632 -113.56177 11386 ft 242 kts 319°
2026-05-08 02:56 50.84900 -113.57910 11040 ft 240 kts 319°
2026-05-08 02:56 50.86148 -113.59621 10715 ft 239 kts 319°
2026-05-08 02:57 50.87400 -113.61336 10343 ft 239 kts 319°
2026-05-08 02:57 50.88672 -113.63081 9973 ft 239 kts 319°
2026-05-08 02:57 50.89920 -113.64791 9656 ft 237 kts 319°
2026-05-08 02:57 50.91132 -113.66457 9349 ft 234 kts 319°
2026-05-08 02:58 50.92293 -113.68233 9083 ft 230 kts 304°
2026-05-08 02:58 50.92831 -113.70548 8961 ft 226 kts 276°
2026-05-08 02:58 50.92840 -113.73056 9007 ft 229 kts 272°
2026-05-08 02:58 50.92821 -113.75580 9001 ft 230 kts 272°
2026-05-08 02:59 50.92805 -113.78109 9005 ft 230 kts 272°
2026-05-08 02:59 50.92785 -113.80662 9006 ft 230 kts 269°
2026-05-08 02:59 50.92319 -113.83096 8785 ft 240 kts 237°
2026-05-08 02:59 50.91014 -113.84737 8550 ft 248 kts 202°
2026-05-08 03:00 50.89291 -113.85101 8321 ft 251 kts 180°
2026-05-08 03:00 50.87558 -113.85035 8096 ft 250 kts 180°
2026-05-08 03:00 50.85834 -113.84990 7851 ft 246 kts 181°
2026-05-08 03:00 50.84171 -113.85311 7582 ft 240 kts 207°
2026-05-08 03:01 50.82986 -113.86980 7318 ft 226 kts 248°
2026-05-08 03:01 50.82684 -113.89346 7091 ft 214 kts 277°
2026-05-08 03:01 50.83073 -113.91525 6938 ft 204 kts 300°
2026-05-08 03:01 50.83970 -113.93211 6684 ft 201 kts 323°
2026-05-08 03:02 50.85209 -113.94203 6520 ft 199 kts 338°
2026-05-08 03:02 50.86512 -113.95016 6516 ft 201 kts 339°
2026-05-08 03:02 50.87797 -113.95821 6517 ft 200 kts 339°
2026-05-08 03:02 50.89099 -113.96652 6518 ft 201 kts 338°
2026-05-08 03:03 50.90401 -113.97495 6512 ft 201 kts 338°
2026-05-08 03:03 50.91700 -113.98283 6510 ft 201 kts 341°
2026-05-08 03:03 50.93051 -113.98807 6497 ft 191 kts 351°
2026-05-08 03:03 50.94281 -113.98998 6502 ft 169 kts 356°
2026-05-08 03:04 50.95400 -113.99048 6458 ft 152 kts 359°
2026-05-08 03:04 50.96444 -113.99060 6293 ft 148 kts 358°
2026-05-08 03:04 50.97470 -113.99071 6067 ft 147 kts 359°
2026-05-08 03:04 50.98486 -113.99049 5878 ft 146 kts
2026-05-08 03:05 50.99493 -113.99013 5696 ft 146 kts 360°
2026-05-08 03:05 51.00514 -113.98981 5513 ft 145 kts 359°
2026-05-08 03:05 51.01514 -113.98987 5351 ft 145 kts 359°
2026-05-08 03:05 51.02526 -113.98990 5160 ft 145 kts 359°
2026-05-08 03:06 51.03527 -113.98999 4963 ft 144 kts 359°
2026-05-08 03:06 51.04540 -113.99007 4775 ft 143 kts 359°
2026-05-08 03:06 51.05537 -113.99000 4578 ft 143 kts 359°
2026-05-08 03:06 51.06538 -113.98988 4387 ft 143 kts 359°
2026-05-08 03:07 51.07527 -113.98984 4214 ft 143 kts 358°
2026-05-08 03:07 51.08528 -113.99006 4048 ft 144 kts 357°
2026-05-08 03:07 51.09533 -113.99034 3850 ft 143 kts 359°
2026-05-08 03:07 51.10516 -113.99035 3683 ft 142 kts
2026-05-08 03:08 51.11464 -113.99037 3566 ft 140 kts 359°
2026-05-08 03:08 51.12336 -113.99041 3569 ft 101 kts
2026-05-08 03:08 51.12848 -113.99050 3575 ft 40 kts 353°
2026-05-08 03:08 51.13052 -113.99155 3577 ft 24 kts 332°
2026-05-08 03:09 51.13149 -113.99255 3578 ft 13 kts 307°
2026-05-08 03:09 51.13161 -113.99390 3578 ft 11 kts 269°
2026-05-08 03:09 51.13160 -113.99519 3577 ft 12 kts 269°
2026-05-08 03:09 51.13160 -113.99657 3576 ft 12 kts 270°
2026-05-08 03:10 51.13161 -113.99792 3574 ft 11 kts 270°
2026-05-08 03:10 51.13160 -113.99895 3573 ft 6 kts 267°
2026-05-08 03:10 51.13158 -113.99982 3572 ft 8 kts 268°
2026-05-08 03:10 51.13140 -114.00066 3571 ft 7 kts 236°
2026-05-08 03:11 51.13105 -114.00127 3570 ft 7 kts 226°
2026-05-08 03:11 51.13085 -114.00161 3569 ft 0 kts 227°